Regional Weather Roundup
Issued by NWS

Home | Current Version | Previous Version | Text Only | Print | Product List | Glossary Off
Versions: 1 2 3 4 5 6 7 8 9 10 11 12 13 14 15 16 17 18 19 20 21 22 23 24 25 26 27 28 29 30 31 32 33 34 35 36 37 38 39 40 41 42 43 44 45 46 47 48 49 50

000
ASUS45 KCYS 281310
RWRWY

WYOMING REGIONAL WEATHER ROUNDUP
NATIONAL WEATHER SERVICE CHEYENNE WY
700 AM MDT SAT MAR 28 2015

NOTE:  "FAIR" INDICATES FEW OR NO CLOUDS BELOW 12,000 FEET
WITH NO SIGNIFICANT WEATHER AND/OR OBSTRUCTIONS TO VISIBILITY.

WYZ001-281400-
YELLOWSTONE NATIONAL PARK

CITY           SKY/WX    TMP DP  RH WIND       PRES   REMARKS
LK YELLOWSTONE   N/A     24  21  88 CALM      30.14S
W YELLOWSTONE  NOT AVBL

$$
WYZ002>013-054>058-071-098>099-281400-
NORTHERN WYOMING

CITY           SKY/WX    TMP DP  RH WIND       PRES   REMARKS
JACKSON        PTCLDY    28  28 100 CALM      30.13S
CODY           FAIR      57  30  35 S10G16    29.95F
GREYBULL       FAIR      38  29  70 SE3       29.95S
WORLAND        FAIR      34  29  82 SW8       29.95S WCI  27
SHERIDAN       FAIR      58  31  35 W12       29.87F
BUFFALO        FAIR      51  28  41 NW3       29.93S
GILLETTE       FAIR      49  30  48 S6        29.91S
HULETT         FAIR      41  32  70 SW7       29.92S
NEWCASTLE      FAIR      34  28  80 CALM      29.96F

$$
WYZ014>020-022>026-101>103-281400-
CENTRAL WYOMING

CITY           SKY/WX    TMP DP  RH WIND       PRES   REMARKS
BIG PINEY      FAIR      23  19  85 CALM      30.18F
PINEDALE       PTSUNNY   27  25  93 W5        30.19S WCI  21
DUBOIS         FAIR      36  28  75 NW15      30.08F WCI  26
LANDER         FAIR      42  23  46 S3        30.03F
RIVERTON       FAIR      43  27  53 SW9       30.04S
CASPER         FAIR      46  26  45 SW12      30.03R
DOUGLAS        FAIR      33  26  75 CALM      30.02S

$$
WYZ021-027>030-104>119-281400-
SOUTHERN WYOMING

CITY           SKY/WX    TMP DP  RH WIND       PRES   REMARKS
EVANSTON       FAIR      39  24  55 S9        30.20S WCI  33
FORT BRIDGER   FAIR      44  26  48 W9        30.22S
ROCK SPRINGS   FAIR      38  25  59 S3        30.18S
DIXON          FAIR      30  25  80 CALM      30.24R
RAWLINS        FAIR      42  25  50 W12       30.16R
SARATOGA       FAIR      32  25  74 S6        30.19S WCI  26
LARAMIE        FAIR      36  23  59 W7        30.15R WCI  30
CHEYENNE       FAIR      39  23  52 W9        30.09S WCI  33
TORRINGTON     FAIR      34  25  69 CALM      29.99S
PINE BLUFFS    FAIR      34  27  75 CALM      30.06R

$$



USA.gov is the U.S. government's official web portal to all federal, state and local government web resources and services.